User: anonymous   Login
Location: Azul
(36.7830°S, 59.8500°W)
Time: 09:52:40
(UTC-03:00)
Language:

UKube-1 - Orbit

View from above orbital plane
View from above orbital plane
View from above satellite
View from above satellite

Ground track
Ground track

The orbit data is extracted from the following two-line orbital elements,

1 40074U 14037F   21295.08798159  .00000691  00000-0  88709-4 0  9998
2 40074  98.4118 157.9552 0004439 352.4280   7.6853 14.84679518394699
Epoch (UTC): 22 October 2021 02:06:41
Eccentricity: 0.0004439
inclination: 98.4118°
perigee height: 611 km
apogee height: 618 km
right ascension of ascending node: 157.9552°
argument of perigee: 352.4280°
revolutions per day: 14.84679518
mean anomaly at epoch: 7.6853°
orbit number at epoch: 39469

The dashed part of the orbit path shows where the satellite is in the earth's shadow,  

DLR